| time (UTC) | temp C | wind direction | speed KPH | gust KPH | rain 1hr cm | rain 24hr cm | rain mn cm | humidity % | barometer mb |
| 20260510010317 | 16 | 296 | 6.4 | 14.5 | 0.00 | 0.41 | 0.00 | 43 | 1031.6 |
| 20260510003317 | 15 | 304 | 6.4 | 16.1 | 0.00 | 0.41 | 0.00 | 45 | 1031.7 |
| 20260510000315 | 15 | 296 | 9.7 | 17.7 | 0.00 | 0.41 | 0.00 | 44 | 1031.8 |
| 20260509233315 | 14 | 283 | 3.2 | 14.5 | 0.00 | 0.41 | 0.00 | 48 | 1031.6 |
| 20260509230333 | 13 | 273 | 6.4 | 14.5 | 0.00 | 0.41 | 0.00 | 51 | 1031.4 |
| 20260509223353 | 12 | 299 | 3.2 | 11.3 | 0.00 | 0.41 | 0.00 | 57 | 1031.3 |
| 20260509220330 | 11 | 255 | 1.6 | 4.8 | 0.00 | 0.41 | 0.00 | 69 | 1031.3 |
| 20260509213330 | 8 | 92 | 0.0 | 3.2 | 0.00 | 0.41 | 0.00 | 87 | 1031.2 |
| 20260509210328 | 5 | 269 | 0.0 | 1.6 | 0.00 | 0.41 | 0.00 | 96 | 1030.8 |
| 20260509203327 | 3 | 269 | 0.0 | 1.6 | 0.00 | 0.41 | 0.00 | 95 | 1030.4 |
| 20260509200325 | 3 | 269 | 0.0 | 0.0 | 0.00 | 0.41 | 0.00 | 93 | 1029.9 |
| 20260509193325 | 3 | 269 | 0.0 | 0.0 | 0.00 | 0.41 | 0.00 | 92 | 1029.5 |
| 20260509190342 | 4 | 269 | 0.0 | 1.6 | 0.00 | 0.41 | 0.00 | 90 | 1028.9 |
| 20260509183321 | 6 | 208 | 0.0 | 0.0 | 0.00 | 0.41 | 0.00 | 86 | 1028.6 |
| 20260509180319 | 7 | 89 | 0.0 | 3.2 | 0.00 | 0.41 | 0.00 | 84 | 1028.1 |
| 20260509173319 | 6 | 60 | 0.0 | 1.6 | 0.00 | 0.41 | 0.00 | 87 | 1028.1 |
| 20260509170316 | 6 | 111 | 0.0 | 0.0 | 0.00 | 0.41 | 0.00 | 88 | 1028.0 |
| 20260509163316 | 7 | 111 | 0.0 | 0.0 | 0.00 | 0.41 | 0.00 | 84 | 1027.8 |
| 20260509160331 | 7 | 352 | 1.6 | 3.2 | 0.00 | 0.41 | 0.00 | 86 | 1027.6 |
| 20260509153330 | 6 | 96 | 0.0 | 1.6 | 0.00 | 0.41 | 0.00 | 87 | 1027.4 |
| 20260509150328 | 6 | 80 | 0.0 | 3.2 | 0.00 | 0.41 | 0.08 | 85 | 1027.5 |
| 20260509143348 | 7 | 344 | 0.0 | 1.6 | 0.00 | 0.41 | 0.08 | 79 | 1027.4 |
| 20260509140345 | 9 | 278 | 4.8 | 11.3 | 0.00 | 0.41 | 0.08 | 72 | 1026.9 |
| 20260509133344 | 7 | 242 | 1.6 | 4.8 | 0.00 | 0.41 | 0.08 | 82 | 1026.9 |
| 20260509130321 | 6 | 43 | 0.0 | 0.0 | 0.00 | 0.51 | 0.08 | 84 | 1026.8 |
| 20260509123320 | 7 | 43 | 0.0 | 3.2 | 0.00 | 0.51 | 0.08 | 79 | 1026.6 |
| 20260509120339 | 9 | 76 | 1.6 | 4.8 | 0.00 | 0.51 | 0.08 | 73 | 1026.3 |
| 20260509113317 | 10 | 288 | 3.2 | 8.0 | 0.00 | 0.51 | 0.08 | 67 | 1025.8 |
| 20260509110316 | 11 | 216 | 11.3 | 19.3 | 0.00 | 1.91 | 0.08 | 61 | 1025.3 |
| 20260509103337 | 11 | 297 | 4.8 | 17.7 | 0.00 | 1.91 | 0.08 | 62 | 1024.7 |
| 20260509100332 | 12 | 310 | 9.7 | 25.7 | 0.00 | 4.90 | 0.08 | 60 | 1024.0 |
| 20260509093333 | 12 | 336 | 12.9 | 32.2 | 0.00 | 4.90 | 0.08 | 57 | 1023.4 |
| 20260509090351 | 13 | 286 | 12.9 | 35.4 | 0.00 | 7.01 | 0.08 | 54 | 1022.9 |
| 20260509083329 | 13 | 302 | 14.5 | 32.2 | 0.00 | 7.01 | 0.08 | 53 | 1023.0 |
| 20260509080348 | 14 | 284 | 19.3 | 30.6 | 0.00 | 7.01 | 0.08 | 50 | 1023.0 |
| 20260509073326 | 14 | 326 | 17.7 | 32.2 | 0.00 | 7.01 | 0.08 | 51 | 1022.2 |
| 20260509070325 | 14 | 312 | 16.1 | 49.9 | 0.00 | 7.01 | 0.08 | 50 | 1022.0 |
| 20260509063324 | 15 | 297 | 17.7 | 43.5 | 0.00 | 7.01 | 0.08 | 50 | 1021.9 |
| 20260509060323 | 15 | 292 | 16.1 | 38.6 | 0.10 | 7.01 | 0.08 | 51 | 1021.7 |
| 20260509053323 | 14 | 304 | 22.5 | 43.5 | 0.10 | 7.01 | 0.08 | 53 | 1021.6 |
| 20260509050321 | 13 | 323 | 11.3 | 30.6 | 0.00 | 7.11 | 0.05 | 65 | 1021.6 |
| 20260509043341 | 12 | 329 | 11.3 | 35.4 | 0.00 | 7.11 | 0.05 | 73 | 1021.9 |
| 20260509040336 | 14 | 307 | 17.7 | 35.4 | 0.00 | 7.11 | 0.05 | 63 | 1021.6 |
| 20260509033336 | 14 | 290 | 14.5 | 37.0 | 0.00 | 7.11 | 0.05 | 61 | 1020.9 |
| 20260509030332 | 13 | 307 | 22.5 | 45.1 | 0.10 | 7.11 | 0.05 | 65 | 1020.9 |
| 20260509023349 | 12 | 305 | 27.4 | 53.1 | 0.20 | 7.11 | 0.05 | 64 | 1020.9 |
| 20260509020328 | 12 | 344 | 29.0 | 53.1 | 0.10 | 7.01 | 0.05 | 64 | 1020.4 |
| 20260509013327 | 12 | 293 | 25.7 | 56.3 | 0.10 | 6.91 | 0.03 | 66 | 1019.7 |